VINASAT-2

Last updated on Oct. 23, 2020, 5:56 a.m. UTC

1 38332U 12023B   20296.85205984 -.00000344  00000-0  00000-0 0  9999
2 38332   0.0054 188.6808 0001735  12.3805 269.2708  1.00270087 25976
UTC
Height (km)
Latitude
Longitude
Inclination
Orbital Period
UTC large
Height (km)
Speed (km/s)
/
Latitude / Longitude
Inclination (degrees)
Orbital Period (minutes)
Azimuth
Elevation
Range (km)
Doppler Factor
iOS Compass Heading
iOS Angle

Next 30 passes for location: Hong Kong

Rise time Rise Azimuth (degrees) Set time Set Azimuth (degrees) Duration Max altitude (degrees)

No matching passes for this satellites